Location: Partizánske
(48.6285°N, 18.3769°E)
Time: 00:44:04
(UTC+02:00)

deb Explorer IX - All Passes

Search period start: 25 June 2022 00:00
Search period end: 05 July 2022 00:00
Orbit: 535 x 1069 km, 38.8° (Epoch: 24 June)

Date Brightness Start Highest point End Pass type
(mag) Time Alt. Az. Time Alt. Az. Time Alt. Az.
25 Jun - 01:23:51 10° SW 01:27:15 22° SSE 01:30:58 10° ESE visible
25 Jun - 03:09:01 10° WSW 03:12:51 25° S 03:17:08 10° SE visible
25 Jun - 04:55:29 10° WSW 04:58:29 16° SSW 05:01:44 10° SSE daylight
26 Jun - 00:54:50 10° SW 00:58:03 21° SSE 01:01:31 10° ESE visible
26 Jun - 02:39:56 10° WSW 02:43:36 24° S 02:47:41 10° SE visible
26 Jun - 04:26:20 10° WSW 04:29:12 15° SSW 04:32:19 10° SSE daylight
27 Jun - 00:25:48 10° SSW 00:28:51 20° SSE 00:32:06 10° ESE visible
27 Jun - 02:10:50 10° WSW 02:14:22 23° S 02:18:15 10° SE visible
27 Jun - 03:57:11 10° SW 03:59:56 15° SSW 04:02:54 10° SSE visible
27 Jun - 23:56:45 10° SSW 23:59:38 19° SSE 00:02:41 10° ESE night (unlit)
28 Jun - 01:41:45 10° SW 01:45:09 23° S 01:48:50 10° SE visible
28 Jun - 03:28:04 10° SW 03:30:42 15° SSW 03:33:30 10° SSE visible
28 Jun - 23:27:41 10° SSW 23:30:27 18° SSE 23:33:19 10° ESE night (unlit)
29 Jun - 01:12:38 10° SW 01:15:55 22° S 01:19:28 10° SE visible
29 Jun - 02:58:56 10° SW 03:01:26 15° SSW 03:04:07 10° SSE visible
29 Jun - 22:58:36 10° SSW 23:01:15 17° SSE 23:03:57 10° SE visible
30 Jun - 00:43:31 10° SW 00:46:42 22° S 00:50:06 10° SE night (unlit)
30 Jun - 02:29:47 10° SW 02:32:12 14° SSW 02:34:45 10° SSE visible
30 Jun - 22:29:30 10° SSW 22:32:02 16° SSE 22:34:37 10° SE visible
01 Jul - 00:14:22 10° SW 00:17:29 21° S 00:20:45 10° SE visible
01 Jul - 02:00:38 10° SW 02:02:58 14° SSW 02:05:25 10° SSE night (unlit)
01 Jul - 22:00:22 10° SSW 22:02:50 16° SSE 22:05:18 10° SE visible
01 Jul - 23:45:12 10° SW 23:48:16 21° S 23:51:27 10° SE visible
02 Jul - 01:31:27 10° SW 01:33:44 14° SSW 01:36:07 10° SSE night (unlit)
02 Jul - 21:31:11 10° SSW 21:33:37 15° SSE 21:36:01 10° SE visible
02 Jul - 23:16:00 10° SW 23:19:03 21° S 23:22:10 10° SE visible
03 Jul - 01:02:16 10° SW 01:04:30 14° SSW 01:06:50 10° SSE night (unlit)
03 Jul - 21:01:58 10° SSW 21:04:24 15° SSE 21:06:46 10° SE daylight
03 Jul - 22:46:47 10° SW 22:49:50 21° S 22:52:54 10° SE visible
04 Jul - 00:33:02 10° SW 00:35:17 14° SSW 00:37:35 10° SSE visible
04 Jul - 20:32:44 10° SSW 20:35:09 15° SSE 20:37:31 10° SE daylight
04 Jul - 22:17:31 10° SW 22:20:37 21° S 22:23:40 10° SE visible
